TimeEST,TemperatureF,Dew PointF,Humidity,Sea Level PressureIn,VisibilityMPH,Wind Direction,Wind SpeedMPH,Gust SpeedMPH,PrecipitationIn,Events,Conditions,WindDirDegrees,DateUTC
12:53 AM,34.0,30.9,89,30.00,10.0,Calm,Calm,-,N/A,,Clear,0,2012-02-02 05:53:00
1:53 AM,33.1,30.0,89,30.01,10.0,Calm,Calm,-,N/A,,Clear,0,2012-02-02 06:53:00
2:53 AM,33.1,30.0,89,30.01,9.0,Calm,Calm,-,N/A,,Clear,0,2012-02-02 07:53:00
3:53 AM,30.9,28.0,89,29.99,9.0,Calm,Calm,-,N/A,,Clear,0,2012-02-02 08:53:00
4:53 AM,30.0,27.0,88,30.01,8.0,Calm,Calm,-,N/A,,Clear,0,2012-02-02 09:53:00
5:53 AM,28.9,27.0,92,30.00,8.0,Calm,Calm,-,N/A,,Clear,0,2012-02-02 10:53:00
6:53 AM,28.0,26.1,92,30.03,9.0,Calm,Calm,-,N/A,,Clear,0,2012-02-02 11:53:00
7:53 AM,28.9,27.0,92,30.05,8.0,Calm,Calm,-,N/A,,Clear,0,2012-02-02 12:53:00
8:53 AM,32.0,30.0,92,30.05,8.0,Calm,Calm,-,N/A,,Clear,0,2012-02-02 13:53:00
9:53 AM,37.0,30.9,79,30.06,10.0,Calm,Calm,-,N/A,,Clear,0,2012-02-02 14:53:00
10:53 AM,41.0,28.0,60,30.04,10.0,North,8.1,-,N/A,,Clear,10,2012-02-02 15:53:00
11:53 AM,42.1,27.0,55,30.04,10.0,NNW,5.8,-,N/A,,Overcast,340,2012-02-02 16:53:00
12:53 PM,42.1,27.0,55,30.02,10.0,NNW,8.1,-,N/A,,Overcast,340,2012-02-02 17:53:00
1:53 PM,42.1,26.1,53,30.02,10.0,North,5.8,-,N/A,,Overcast,360,2012-02-02 18:53:00
2:53 PM,41.0,26.1,55,30.02,10.0,North,8.1,-,N/A,,Overcast,360,2012-02-02 19:53:00
3:53 PM,39.9,27.0,60,30.04,10.0,North,9.2,-,N/A,,Overcast,360,2012-02-02 20:53:00
4:53 PM,39.0,26.1,60,30.07,10.0,North,10.4,-,N/A,,Overcast,10,2012-02-02 21:53:00
5:53 PM,37.0,25.0,62,30.10,10.0,North,9.2,-,N/A,,Overcast,10,2012-02-02 22:53:00
6:53 PM,36.0,25.0,64,30.13,10.0,North,10.4,-,N/A,,Overcast,360,2012-02-02 23:53:00
7:53 PM,35.1,24.1,64,30.16,10.0,North,5.8,-,N/A,,Overcast,10,2012-02-03 00:53:00
8:53 PM,35.1,23.0,61,30.18,10.0,North,6.9,-,N/A,,Overcast,360,2012-02-03 01:53:00
9:53 PM,34.0,21.9,61,30.20,10.0,North,6.9,-,N/A,,Overcast,10,2012-02-03 02:53:00
10:53 PM,34.0,21.0,59,30.23,10.0,North,8.1,-,N/A,,Overcast,360,2012-02-03 03:53:00
11:53 PM,33.1,21.9,64,30.25,10.0,NW,3.5,-,N/A,,Overcast,320,2012-02-03 04:53:00